This is the latest recevied weather packets stored in our database for station/object K4DNM. If no packets are shown the sender has not sent any weather packets the latest 10 day(s).
| Time | Temp. | Humidity | Pressure | Rain* | Wind** | Luminosity | Snow |
|---|---|---|---|---|---|---|---|
| 1778175208 | 21.11° C | 97% | 1006.4 hPa | 0.25 mm | - | 261 W/m² | - |
| 1778174908 | 20.56° C | 97% | 1006.5 hPa | 0.25 mm | - | 266 W/m² | - |
| 1778174607 | 20.56° C | 97% | 1006.6 hPa | 0.25 mm | - | 159 W/m² | - |
| 1778174306 | 20.56° C | 97% | 1006.6 hPa | 0.25 mm | - | 120 W/m² | - |
| 1778174007 | 20.56° C | 98% | 1006.8 hPa | 0.25 mm | - | 80 W/m² | - |
| 1778173707 | 20.56° C | 98% | 1007 hPa | 0 mm | - | 92 W/m² | - |
| 1778173407 | 20.56° C | 98% | 1007.3 hPa | 0 mm | - | 99 W/m² | - |
| 1778173091 | 20.56° C | 98% | 1007.5 hPa | 0 mm | - | 125 W/m² | - |
| 1778172790 | 20.56° C | 98% | 1007.7 hPa | 0.25 mm | - | 100 W/m² | - |
| 1778172551 | 20.56° C | 98% | 1007.8 hPa | 0.25 mm | - | 100 W/m² | - |
| 1778172191 | 20.56° C | 98% | 1007.8 hPa | 0.25 mm | - | 154 W/m² | - |
| 1778171904 | 20.56° C | 98% | 1007.9 hPa | 0.25 mm | - | 83 W/m² | - |
| 1778171591 | 20.56° C | 98% | 1007.9 hPa | 0.25 mm | - | 83 W/m² | - |
| 1778171296 | 20.56° C | 99% | 1008 hPa | 0.25 mm | - | 107 W/m² | - |
| 1778170992 | 20.56° C | 99% | 1008.1 hPa | 0 mm | - | 219 W/m² | - |
| 1778170693 | 20.56° C | 99% | 1008 hPa | 0 mm | - | 157 W/m² | - |
| 1778170392 | 20° C | 99% | 1008.1 hPa | 0 mm | - | 111 W/m² | - |
| 1778170078 | 20° C | 99% | 1008 hPa | 0 mm | - | 114 W/m² | - |
| 1778169778 | 20° C | 99% | 1008 hPa | 0 mm | - | 136 W/m² | - |
| 1778169541 | 20° C | 99% | 1007.8 hPa | 0 mm | - | 142 W/m² | - |
| 1778169164 | 20° C | 99% | 1007.8 hPa | 0 mm | - | 172 W/m² | - |
| 1778168866 | 19.44° C | 99% | 1007.7 hPa | - | - | 111 W/m² | - |
| 1778168503 | 19.44° C | 99% | 1007.8 hPa | 5.08 mm | - | 125 W/m² | - |
| 1778168206 | 19.44° C | 99% | 1007.9 hPa | 5.08 mm | - | 122 W/m² | - |
| 1778167903 | 19.44° C | 99% | 1008.1 hPa | 5.08 mm | - | 86 W/m² | - |
* Rain latest hour (hover to see other rain measurements)
** Current wind speed in m/s (hover to see current wind gust speed)